Weather History for Fort Drum, NY

Change the Weather History Date:

Thursday, February 7, 2013

  Actual Average Record
Temperature  
Mean Temperature 8 °F -  
Max Temperature 15 °F 27 °F 48 °F (2005)
Min Temperature 2 °F 9 °F -7 °F (2007)
Degree Days  
Heating Degree Days 56    
Moisture  
Dew Point 0 °F    
Average Humidity 65    
Maximum Humidity 76    
Minimum Humidity 55    
Precipitation  
Precipitation 0.00 in - - ()
Sea Level Pressure  
Sea Level Pressure 30.40 in    
Wind  
Wind Speed 7 mph (ENE)    
Max Wind Speed 13 mph    
Max Gust Speed -    
Visibility 10 miles    
Events Snow    
Averages and records for this station are not official NWS values.
T = Trace of Precipitation, MM = Missing Value Source: NWS Daily Summary

Daily Weather History Graph

Daily Weather History Graph

Search for Another Location

Airport:

Trip Planner

Search our weather history database for the weather conditions in past years. The results will help you decide how hot, cold, wet, or windy it might be!

Date:

Astronomy

Feb. 07, 2013 Rise Set
Actual Time 7:12 AM EST 5:21 PM EST
Civil Twilight 6:42 AM EST 5:52 PM EST
Nautical Twilight 6:08 AM EST 6:26 PM EST
Astronomical Twilight 5:34 AM EST 6:59 PM EST
Moon 4:53 AM EST (2/7) 2:40 PM EST (2/7)
Length of Visible Light 11h 09m
Length of Day
10h 08m
Waning Crescent, 9% of the Moon is Illuminated
Feb 7
Waning Crescent
Feb 10
New
Feb 17
First Quarter
Feb 25
Full
Mar 4
Last Quarter

Hourly Weather History & Observations

Time (EST) Temp. Windchill Dew Point Humidity Pressure Visibility Wind Dir Wind Speed Gust Speed Precip Events Conditions
12:55 AM 8.8 °F - -2.4 °F 61% 30.41 in 10.0 mi Calm Calm - N/A   Overcast
1:55 AM 7.0 °F -1.7 °F -2.2 °F 66% 30.41 in 10.0 mi East 4.6 mph - N/A   Overcast
2:55 AM 5.7 °F -4.8 °F -3.5 °F 66% 30.44 in 10.0 mi NE 5.8 mph - N/A   Mostly Cloudy
3:55 AM 5.7 °F -4.8 °F -4.4 °F 63% 30.45 in 10.0 mi NE 5.8 mph - N/A   Mostly Cloudy
4:55 AM 5.2 °F -6.7 °F -5.1 °F 63% 30.47 in 10.0 mi ENE 6.9 mph - N/A   Overcast
5:55 AM 5.2 °F -6.7 °F -5.4 °F 62% 30.49 in 10.0 mi East 6.9 mph - N/A   Overcast
6:55 AM 2.7 °F -9.7 °F -4.9 °F 71% 30.51 in 10.0 mi NNE 6.9 mph - N/A   Overcast
7:55 AM 3.2 °F -9.1 °F -3.8 °F 73% 30.52 in 10.0 mi NE 6.9 mph - N/A   Overcast
8:55 AM 4.5 °F -9.8 °F -3.5 °F 70% 30.55 in 10.0 mi East 9.2 mph - N/A   Overcast
9:55 AM 7.0 °F -3.3 °F -3.1 °F 63% 30.55 in 10.0 mi ENE 5.8 mph - N/A   Overcast
10:55 AM 9.3 °F 1.0 °F -2.2 °F 60% 30.54 in 10.0 mi ENE 4.6 mph - N/A   Overcast
11:55 AM 12.6 °F 1.1 °F -0.2 °F 57% 30.51 in 10.0 mi NE 8.1 mph - N/A   Overcast
12:55 PM 14.2 °F 5.3 °F 1.8 °F 58% 30.47 in 10.0 mi ENE 5.8 mph - N/A   Overcast
1:55 PM 14.7 °F 1.4 °F 2.7 °F 59% 30.45 in 10.0 mi NE 11.5 mph - N/A   Overcast
2:55 PM 15.8 °F 3.4 °F 2.3 °F 55% 30.43 in 10.0 mi NE 10.4 mph - N/A   Overcast
3:55 PM 15.6 °F 2.5 °F 3.4 °F 59% 30.41 in 10.0 mi NE 11.5 mph - N/A   Overcast
4:55 PM 13.3 °F -0.5 °F 1.2 °F 59% 30.39 in 10.0 mi NE 11.5 mph - N/A   Overcast
5:55 PM 12.2 °F -1.8 °F 0.9 °F 60% 30.40 in 10.0 mi NE 11.5 mph - N/A   Overcast
6:33 PM 10.4 °F -4.1 °F -0.4 °F 62% 30.40 in 10.0 mi NE 11.5 mph - N/A   Overcast
6:55 PM 10.6 °F -3.1 °F 0.1 °F 63% 30.40 in 10.0 mi ENE 10.4 mph - N/A   Overcast
7:55 PM 10.4 °F -2.4 °F 0.7 °F 65% 30.37 in 10.0 mi ENE 9.2 mph - N/A   Overcast
8:28 PM 10.4 °F -1.5 °F 1.4 °F 67% 30.37 in 10.0 mi ENE 8.1 mph - N/A   Overcast
8:55 PM 11.1 °F -0.6 °F 1.6 °F 66% 30.36 in 10.0 mi ENE 8.1 mph - N/A   Overcast
9:55 PM 11.5 °F -1.9 °F 2.5 °F 67% 30.33 in 10.0 mi ENE 10.4 mph - N/A   Overcast
10:55 PM 11.7 °F -3.2 °F 3.7 °F 71% 30.30 in 10.0 mi ENE 12.7 mph - N/A   Overcast
10:56 PM 12.2 °F -2.5 °F 3.2 °F 67% 30.30 in 10.0 mi ENE 12.7 mph - N/A   Overcast
11:07 PM 12.2 °F -1.8 °F 3.2 °F 67% 30.29 in 10.0 mi ENE 11.5 mph - N/A   Mostly Cloudy
11:08 PM 12.2 °F -1.8 °F 3.2 °F 67% 30.29 in 10.0 mi ENE 11.5 mph - N/A   Mostly Cloudy
11:10 PM 12.2 °F -1.8 °F 3.2 °F 67% 30.29 in 10.0 mi ENE 11.5 mph - N/A   Scattered Clouds
11:18 PM 12.2 °F -1.8 °F 3.2 °F 67% 30.29 in 10.0 mi ENE 11.5 mph - N/A   Mostly Cloudy
11:34 PM 12.2 °F -0.2 °F 3.2 °F 67% 30.28 in 10.0 mi ENE 9.2 mph - N/A Snow Light Snow
11:53 PM 12.2 °F -0.2 °F 5.0 °F 73% 30.27 in 6.0 mi East 9.2 mph - N/A Snow Light Snow
11:55 PM 11.5 °F -1.1 °F 5.2 °F 76% 30.27 in 6.0 mi East 9.2 mph - 0.00 in Snow Light Snow